FENGYUN 1C DEB, 31071

Orbit data source: Space-Track

FENGYUN 1C DEB, 31071 is space debris in SSO originally from a launch on Mon, 10 May 1999 UTC launched from the Taiyaun Space Center, China (TSC). Fengyun 1C debris stems from the Chinese weather satellite Fengyun-1C, which was intentionally destroyed by a Chinese anti-satellite missile in 2007. This event dramatically increased the amount of space debris, with thousands of trackable fragments posing hazards to satellites and human spaceflight. The Fengyun 1C debris cloud has become a focal point in discussions about space sustainability and the need for international regulations to prevent the creation of new debris.

Loading next visibility...
Identifier
31071, 1999-025BFR
Orbit
SSO
Country
Flag of CNCN / PRC
Related business
Manufacturer
Unknown
Mission
Spacecraft
Bus & Motor
Unknown
Mass
Unknown
Launch date (UTC)
1999-05-10 (27 years ago)
Launch vehicle
Unknown
Launch site
Taiyaun Space Center, China (TSC)
Object type
Payload
Rocket body
Debris
Shape & HBR
Unknown shape, 0.1 m
Radar Cross Section
Small (<0.1 m²)

Expand to show TLE details & history
Last TLE update: 3 days ago

TLE from 3 days ago
0 FENGYUN 1C DEB
1 31071U 99025BFR 26234.52704162  .00002846  00000-0  66622-3 0  9996
2 31071  99.0338 337.0205 0053870 239.0727 120.5166 14.54611561691673
Epoch: 2026-08-22T12:38Z
TLE epoch observation values (Epoch: 2026-08-22T12:38:56.395Z)
Latitude
-0.00003°
Longitude
176.44935°
Altitude
733.124 km
Speed
7.478 km/s
True Right ascension
22h 28m 04s
True Declination
0° 00' 00"
Sunlit
Object was in full shadow at epoch
Visualization orbit readout
Latitude
Unknown
Longitude
Unknown
Altitude
Unknown
Speed
Unknown
Apparent Right ascension
Unknown
Apparent Declination
Unknown
Sunlit
N/A
Visualization observer readout
Local Sidereal Time
17:07:30
Azimuth
Unknown
Elevation
Unknown
Doppler factor
Unknown
Orbital elements
Apogee altitude
745.927 km
Perigee altitude
669.583 km
Semi-major axis
7,085.892 km
Eccentricity
0.00539
Inclination
99.0338°
RAAN
337.0205°
Arg. of periapsis
239.0727°
True anomaly
121.04658°
Mean anomaly
120.5166°
Eccentric anomaly
120.78177°
Mean motion
3.63874 °/min
Orbital period
98.94 mins
BSTAR
0.00066622
Loading maneuver chart data...
Computing Atmospheric mass density...
Loading historical data...
Loading historical data...
Loading historical data...
Loading historical data...
Loading historical data...
Loading historical data...
Loading historical data...

Documentation

Showing up to 5 results
|